Home   Weather   Azamgarh   Past weeks

Flag for India Past Weather in Azamgarh, Uttar Pradesh, India — Yesterday and Last 2 Weeks

Now
55 °F

Fog.


Feels Like: 55 °F
Forecast: 51 / 73 °F
Wind: No wind

Location: Lucknow / Amausi

Current Time: Dec 7, 2016 at 10:05:44 pm

Latest Report: Dec 7, 2016 at 9:00 pm


Visibility: 0 mi

Pressure: 30.01 "Hg

Humidity: 94%

Dew Point: 54 °F

Location of AzamgarhLocation

Past Weather in Azamgarh — Graph

°F

Azamgarh Temperature Yesterday

Maximum temperature yesterday: 63 °F (at 2:30 pm)
Minimum temperature yesterday: 55 °F (at 12:00 am)
Average temperature yesterday: 58 °F

High & Low Weather Summary for the Past Weeks

 TemperatureHumidityPressure
High86 °F (Nov 23, 2:30 pm)100% (Nov 27, 5:00 am)30.18 "Hg (Nov 27, 5:00 am)
Low50 °F (Dec 5, 2:00 am)30% (Nov 25, 1:30 pm)29.71 "Hg (Dec 2, 8:00 pm)
Average65 °F79%29.96 "Hg
* Reported Nov 22 8:30 pm — Dec 7 8:30 pm, Azamgarh, Weather by CustomWeather, © 2016

Note: Actual official high and low records may vary slightly from our data, if they occured in-between our weather recording intervals... More about our weather records

Advertising

Azamgarh Weather History for the Previous 24 Hours

Scroll right to see more
 ConditionsComfort  
Time TempWeatherWind HumidityBarometerVisibility
8:30 pm
Wed, Dec 7
57 °FFog.No wind100%30.01 "Hg1 mi
8:00 pm59 °FFog.No wind94%30.01 "Hg1 mi
7:30 pm59 °FFog.No wind94%30.01 "Hg1 mi
7:00 pm59 °FFog.No wind94%30.01 "Hg1 mi
6:30 pm61 °FFog.No wind88%29.98 "Hg1 mi
6:00 pm61 °FFog.No wind88%29.98 "Hg1 mi
5:30 pm63 °FFog.No wind88%29.98 "Hg1 mi
5:00 pm64 °FHaze.No wind83%29.95 "Hg1 mi
4:30 pm64 °FHaze.No wind83%29.98 "Hg1 mi
4:00 pm64 °FHaze.No wind83%29.98 "Hg1 mi
3:30 pm66 °FHaze.2 mph78%29.98 "Hg1 mi
3:00 pm66 °FHaze.2 mph78%29.98 "Hg1 mi
2:30 pm66 °FHaze.2 mph78%29.98 "Hg1 mi
2:00 pm66 °FHaze.2 mph78%29.98 "Hg1 mi
1:30 pm66 °FHaze.2 mph73%30.01 "Hg1 mi
1:00 pm64 °FHaze.2 mph78%30.01 "Hg1 mi
12:30 pm64 °FFog.2 mph78%30.04 "Hg1 mi
12:00 pm63 °FFog.2 mph83%30.04 "Hg1 mi
11:30 am63 °FFog.5 mph77%30.07 "Hg1 mi
11:00 am61 °FFog.2 mph88%30.07 "Hg1 mi
10:30 am59 °FFog.No wind94%30.09 "Hg1 mi
10:00 am57 °FFog.No wind94%30.09 "Hg1 mi
9:30 am55 °FFog.No wind100%30.09 "Hg1 mi
9:00 am55 °FFog.No wind100%30.09 "Hg1 mi
8:30 am55 °FFog.No wind100%30.07 "Hg1 mi
7:30 am55 °FFog.No wind94%30.04 "Hg1 mi
7:00 am55 °FFog.No wind94%30.04 "Hg0 mi
6:30 am55 °FFog.No wind94%30.04 "Hg0 mi
5:30 am55 °FFog.No wind100%30.01 "Hg0 mi
5:00 am55 °FFog.No wind100%30.01 "Hg0 mi
4:00 am55 °FFog.No wind100%30.01 "Hg0 mi
3:00 am55 °FFog.No wind100%30.01 "Hg0 mi
2:00 am55 °FFog.No wind100%30.04 "Hg0 mi
1:00 am57 °FFog.No wind100%30.04 "Hg0 mi
11:00 pm
Tue, Dec 6
57 °FFog.No wind100%30.07 "Hg0 mi
Weather by CustomWeather, © 2016

See weather overviewHow to use our weather pages